Time,TemperatureF,DewpointF,PressureIn,WindDirection,WindDirectionDegrees,WindSpeedMPH,WindSpeedGustMPH,Humidity,HourlyPrecipIn,Conditions,Clouds,dailyrainin,SoftwareType,DateUTC
2013-02-24 19:46:00,63.2,56.6,29.97,West,279,0.0,0.0,79,0.00,,,0.31,WUHU216DAVISVP2,2013-02-25 00:46:00,
2013-02-24 19:59:00,63.3,57.1,29.96,West,279,0.0,0.0,80,0.00,,,0.31,WUHU216DAVISVP2,2013-02-25 00:59:00,
2013-02-24 20:04:00,63.3,57.1,29.96,West,279,0.0,0.0,80,0.00,,,0.31,WUHU216DAVISVP2,2013-02-25 01:04:00,
2013-02-24 20:09:00,63.2,57.3,29.97,West,279,0.0,0.0,81,0.00,,,0.31,WUHU216DAVISVP2,2013-02-25 01:09:00,
2013-02-24 20:14:00,63.2,57.3,29.96,West,279,0.0,0.0,81,0.00,,,0.31,WUHU216DAVISVP2,2013-02-25 01:14:00,
2013-02-24 20:19:00,63.2,57.7,29.97,West,279,0.0,0.0,82,0.00,,,0.31,WUHU216DAVISVP2,2013-02-25 01:19:00,
2013-02-24 20:24:00,63.2,57.7,29.97,West,279,0.0,0.0,82,0.00,,,0.31,WUHU216DAVISVP2,2013-02-25 01:24:00,
2013-02-24 20:29:00,63.1,57.6,29.97,West,279,0.0,0.0,82,0.00,,,0.31,WUHU216DAVISVP2,2013-02-25 01:29:00,
2013-02-24 20:34:00,63.1,57.6,29.97,West,279,0.0,0.0,82,0.00,,,0.31,WUHU216DAVISVP2,2013-02-25 01:34:00,
2013-02-24 20:39:00,63.1,57.6,29.97,West,279,0.0,0.0,82,0.00,,,0.31,WUHU216DAVISVP2,2013-02-25 01:39:00,
2013-02-24 20:44:00,63.0,57.8,29.98,West,279,0.0,1.0,83,0.00,,,0.31,WUHU216DAVISVP2,2013-02-25 01:44:00,
2013-02-24 20:49:00,63.0,57.8,29.99,West,279,0.0,1.0,83,0.00,,,0.31,WUHU216DAVISVP2,2013-02-25 01:49:00,
2013-02-24 20:54:00,63.0,58.1,29.99,West,279,0.0,0.0,84,0.00,,,0.31,WUHU216DAVISVP2,2013-02-25 01:54:00,
2013-02-24 20:59:00,62.9,58.0,29.99,West,279,0.0,0.0,84,0.00,,,0.31,WUHU216DAVISVP2,2013-02-25 01:59:00,
2013-02-24 21:04:00,62.9,58.3,29.98,West,279,0.0,0.0,85,0.00,,,0.31,WUHU216DAVISVP2,2013-02-25 02:04:00,
2013-02-24 21:09:00,62.9,58.3,29.99,West,279,0.0,0.0,85,0.00,,,0.31,WUHU216DAVISVP2,2013-02-25 02:09:00,
2013-02-24 21:14:00,62.7,58.5,29.99,West,279,0.0,0.0,86,0.00,,,0.31,WUHU216DAVISVP2,2013-02-25 02:14:00,
2013-02-24 21:19:00,62.7,58.8,30.00,West,279,1.0,2.0,87,0.00,,,0.31,WUHU216DAVISVP2,2013-02-25 02:19:00,
2013-02-24 21:24:00,62.4,58.8,30.02,West,278,0.0,3.0,88,0.00,,,0.31,WUHU216DAVISVP2,2013-02-25 02:24:00,
2013-02-24 21:29:00,62.3,58.7,30.01,West,278,0.0,3.0,88,0.00,,,0.31,WUHU216DAVISVP2,2013-02-25 02:29:00,
2013-02-24 21:34:00,62.3,58.7,30.00,West,279,0.0,0.0,88,0.00,,,0.31,WUHU216DAVISVP2,2013-02-25 02:34:00,
2013-02-24 21:39:00,62.3,58.7,30.00,West,279,0.0,1.0,88,0.00,,,0.31,WUHU216DAVISVP2,2013-02-25 02:39:00,
2013-02-24 21:44:00,62.3,59.0,30.00,West,279,0.0,1.0,89,0.00,,,0.31,WUHU216DAVISVP2,2013-02-25 02:44:00,
2013-02-24 21:49:00,62.2,58.6,29.98,West,279,0.0,0.0,88,0.00,,,0.31,WUHU216DAVISVP2,2013-02-25 02:49:00,
2013-02-24 21:54:00,62.2,58.6,29.97,West,279,0.0,1.0,88,0.00,,,0.31,WUHU216DAVISVP2,2013-02-25 02:54:00,
2013-02-24 21:59:00,62.2,58.6,29.96,West,279,0.0,1.0,88,0.00,,,0.31,WUHU216DAVISVP2,2013-02-25 02:59:00,
2013-02-24 22:04:00,62.2,58.6,29.96,West,279,0.0,2.0,88,0.00,,,0.31,WUHU216DAVISVP2,2013-02-25 03:04:00,
2013-02-24 22:09:00,62.3,59.0,29.95,ENE,68,3.0,3.0,89,0.01,,,0.32,WUHU216DAVISVP2,2013-02-25 03:09:00,
2013-02-24 22:14:00,62.2,59.2,29.93,ENE,71,0.0,4.0,90,0.02,,,0.33,WUHU216DAVISVP2,2013-02-25 03:14:00,
2013-02-24 22:19:00,62.0,59.3,29.93,ENE,70,0.0,4.0,91,0.02,,,0.33,WUHU216DAVISVP2,2013-02-25 03:19:00,
2013-02-24 22:24:00,61.9,59.2,29.93,SSW,211,0.0,2.0,91,0.03,,,0.34,WUHU216DAVISVP2,2013-02-25 03:24:00,
2013-02-24 22:29:00,61.6,58.6,29.94,West,267,5.0,5.0,90,0.03,,,0.34,WUHU216DAVISVP2,2013-02-25 03:29:00,
2013-02-24 22:34:00,61.1,58.1,29.95,NNW,331,2.0,9.0,90,0.03,,,0.34,WUHU216DAVISVP2,2013-02-25 03:34:00,
2013-02-24 22:39:00,60.9,57.9,29.95,NNW,333,0.0,9.0,90,0.03,,,0.34,WUHU216DAVISVP2,2013-02-25 03:39:00,
2013-02-24 22:44:00,60.9,58.2,29.94,NNW,333,0.0,2.0,91,0.03,,,0.34,WUHU216DAVISVP2,2013-02-25 03:44:00,
2013-02-24 22:49:00,60.6,57.6,29.95,NNW,333,0.0,0.0,90,0.03,,,0.34,WUHU216DAVISVP2,2013-02-25 03:49:00,
2013-02-24 22:54:00,60.1,57.1,29.94,NNW,333,0.0,0.0,90,0.03,,,0.34,WUHU216DAVISVP2,2013-02-25 03:54:00,
2013-02-24 22:59:00,59.4,56.1,29.95,WNW,299,0.0,1.0,89,0.03,,,0.34,WUHU216DAVISVP2,2013-02-25 03:59:00,
2013-02-24 23:04:00,58.7,55.4,29.95,WNW,299,0.0,1.0,89,0.03,,,0.34,WUHU216DAVISVP2,2013-02-25 04:04:00,
2013-02-24 23:09:00,58.3,55.3,29.95,WNW,299,0.0,0.0,90,0.02,,,0.34,WUHU216DAVISVP2,2013-02-25 04:09:00,
2013-02-24 23:14:00,58.1,55.2,29.95,WNW,299,0.0,0.0,90,0.01,,,0.34,WUHU216DAVISVP2,2013-02-25 04:14:00,
2013-02-24 23:19:00,58.0,55.4,29.95,WNW,299,0.0,0.0,91,0.01,,,0.34,WUHU216DAVISVP2,2013-02-25 04:19:00,
2013-02-24 23:24:00,58.0,55.7,29.96,WNW,299,0.0,0.0,92,0.00,,,0.34,WUHU216DAVISVP2,2013-02-25 04:24:00,
2013-02-24 23:29:00,58.0,55.7,29.96,WNW,299,0.0,0.0,92,0.00,,,0.34,WUHU216DAVISVP2,2013-02-25 04:29:00,
2013-02-24 23:34:00,58.1,56.0,29.96,WNW,299,0.0,0.0,93,0.00,,,0.34,WUHU216DAVISVP2,2013-02-25 04:34:00,
2013-02-24 23:39:00,58.2,56.4,29.96,WNW,299,0.0,0.0,94,0.00,,,0.34,WUHU216DAVISVP2,2013-02-25 04:39:00,
2013-02-24 23:44:00,58.3,56.5,29.96,WNW,299,0.0,0.0,94,0.00,,,0.34,WUHU216DAVISVP2,2013-02-25 04:44:00,
2013-02-24 23:49:00,58.5,56.7,29.96,WNW,299,0.0,0.0,94,0.00,,,0.34,WUHU216DAVISVP2,2013-02-25 04:49:00,
2013-02-24 23:54:00,58.5,56.7,29.95,WNW,299,0.0,0.0,94,0.00,,,0.34,WUHU216DAVISVP2,2013-02-25 04:54:00,
2013-02-24 23:59:00,58.7,57.2,29.95,WNW,299,0.0,0.0,95,0.00,,,0.00,WUHU216DAVISVP2,2013-02-25 04:59:00,